Location: Bush Observatory
(40.2653°N, 94.3194°W)
Time: 01:23:53
(UTC-06:00)

Iridium 13 - Visible Passes

Search period start: 20 December 2014 00:00
Search period end: 30 December 2014 00:00
Orbit: 776 x 779 km, 86.4° (Epoch: 19 December)

Date Brightness Start Highest point End Pass type
(mag) Time Alt. Az. Time Alt. Az. Time Alt. Az.
20 Dec 8.1 05:35:08 10° NNE 05:38:49 19° ENE 05:42:28 10° ESE visible
20 Dec 5.9 18:30:34 10° SSE 18:35:23 40° E 18:37:04 31° NE visible
20 Dec 7.7 20:12:11 10° SW 20:16:13 23° WNW 20:17:38 20° NW visible
21 Dec 5.5 06:41:06 10° N 06:46:21 88° W 06:51:33 10° S visible
21 Dec 6.6 17:58:12 10° SE 18:02:05 22° E 18:05:00 14° NE visible
21 Dec 6.7 19:37:36 10° SSW 19:42:29 41° W 19:45:34 21° NNW visible
22 Dec 6.5 06:07:43 10° N 06:12:47 50° E 06:17:48 10° SSE visible
22 Dec 7.3 17:27:11 10° E 17:28:55 12° ENE 17:30:40 10° ENE visible
22 Dec 5.6 19:03:41 10° S 19:08:53 76° W 19:13:32 13° N visible
23 Dec 7.6 05:34:40 10° NNE 05:39:05 27° E 05:43:28 10° SE visible
23 Dec 5.5 18:30:19 10° SSE 18:35:24 58° E 18:40:31 10° N visible
23 Dec 8.2 20:13:26 10° WSW 20:16:31 16° WNW 20:19:38 10° NW visible
24 Dec 8.3 05:02:18 10° NE 05:05:15 15° ENE 05:08:12 10° ESE visible
24 Dec 5.6 06:41:16 10° N 06:46:25 61° W 06:51:31 10° SSW visible
24 Dec 6.2 17:57:31 10° SE 18:02:02 31° E 18:06:35 10° NNE visible
24 Dec 7.4 19:38:15 10° SW 19:42:42 28° W 19:47:11 10° NNW visible
25 Dec 5.8 06:07:42 10° N 06:12:55 73° E 06:18:06 10° S visible
25 Dec 6.9 17:25:30 10° ESE 17:28:48 17° E 17:32:06 10° NE visible
25 Dec 6.3 19:03:58 10° SSW 19:09:01 52° W 19:14:07 10° N visible
26 Dec 6.9 05:34:26 10° NNE 05:39:18 39° E 05:44:09 10° SSE visible
26 Dec 5.4 18:30:16 10° S 18:35:28 84° E 18:40:42 10° N visible
26 Dec 8.6 20:15:49 10° W 20:16:52 11° WNW 20:17:56 10° WNW visible
27 Dec 7.9 05:01:35 10° NNE 05:05:33 22° ENE 05:09:30 10° SE visible
27 Dec 5.9 06:41:34 10° NNW 06:46:26 41° W 06:51:17 10° SSW visible
27 Dec 5.8 17:57:06 10° SSE 18:02:01 45° E 18:06:58 10° NNE visible
27 Dec 8.0 19:39:12 10° WSW 19:42:58 20° WNW 19:46:45 10° NNW visible
28 Dec 8.5 04:29:52 10° NE 04:31:40 12° ENE 04:33:27 10° E visible
28 Dec 5.4 06:07:48 10° N 06:13:01 78° W 06:18:12 10° S visible
28 Dec 6.6 17:24:34 10° SE 17:28:43 25° E 17:32:52 10° NNE visible
28 Dec 7.0 19:04:27 10° SSW 19:09:12 36° W 19:13:59 10° NNW visible
29 Dec 6.1 05:34:20 10° N 05:39:28 57° E 05:44:34 10° SSE visible
29 Dec 5.9 18:30:24 10° S 18:35:34 67° W 18:40:46 10° N visible
